DW9545 Weather Reports


Display with metric or nautical units.
time (UTC)temp
F
wind
direction
speed
MPH
gust
MPH
rain 1hr
in
rain 24hr
in
rain mn
in
humidity
%
barometer
mb
20260510230023 62 262 0.0 4.0 0.00 0.02 0.02 86 966.5
20260510224527 62 267 0.0 0.0 0.00 0.02 0.02 88 966.4
20260510223015 62 252 0.0 1.0 0.02 0.02 0.02 89 966.3
20260510221520 62 238 0.0 2.0 0.02 0.02 0.02 89 966.2
20260510220014 61 264 0.0 0.0 0.02 0.02 0.02 90 966.0
20260510214513 61 49 0.0 0.0 0.02 0.08 0.02 88 966.1
20260510213012 0 0.0 0.0 0.00 0.06 0.00 966.2
20260510211510 67 322 0.0 5.0 0.00 0.06 0.00 67 965.4
20260510210006 68 242 0.0 4.0 0.00 0.06 0.00 64 965.3
20260510204507 68 298 0.0 9.0 0.00 0.15 0.00 63 965.2
20260510203005 69 262 0.0 4.0 0.00 0.15 0.00 64 965.1
20260510201503 69 276 0.0 4.0 0.00 0.15 0.00 65 965.1
20260510200002 68 233 0.0 8.0 0.00 0.15 0.00 65 965.3
20260510194503 68 256 1.0 9.0 0.00 0.23 0.00 64 965.4
20260510193001 69 259 1.0 8.0 0.00 0.23 0.00 63 965.4
20260510191603 68 234 0.0 2.0 0.00 0.23 0.00 64 965.5
20260510190110 69 269 0.0 1.0 0.00 0.23 0.00 64 965.8
20260510184557 68 148 1.0 6.0 0.00 0.23 0.00 68 965.7
20260510183057 68 207 1.0 8.0 0.00 0.23 0.00 68 965.6
20260510181557 68 272 3.0 8.0 0.00 0.23 0.00 67 965.7
20260510180106 68 281 2.0 7.0 0.00 0.23 0.00 66 965.6
20260510174604 68 252 3.0 9.0 0.00 0.23 0.00 66 966.0
20260510173054 67 242 5.0 11.0 0.00 0.23 0.00 68 966.2
20260510171602 67 269 2.0 11.0 0.00 0.23 0.00 71 966.4
20260510170050 66 262 4.0 10.0 0.00 0.23 0.00 72 966.7
20260510164605 65 252 3.0 8.0 0.00 0.23 0.00 75 966.6
20260510163113 64 229 0.0 7.0 0.00 0.23 0.00 75 966.7
20260510161546 63 142 2.0 5.0 0.00 0.23 0.00 78 966.8
20260510160048 63 132 1.0 5.0 0.00 0.23 0.00 77 967.1
20260510154544 63 238 2.0 8.0 0.00 0.23 0.00 76 967.0
20260510153057 63 205 2.0 7.0 0.00 0.23 0.00 77 967.1
20260510151541 62 253 2.0 5.0 0.00 0.23 0.00 79 967.1
20260510150043 62 113 0.0 6.0 0.00 0.23 0.00 84 967.1
20260510144543 60 128 2.0 5.0 0.00 0.24 0.00 87 967.1
20260510143038 58 215 0.0 3.0 0.00 0.24 0.00 89 967.2
20260510141533 57 150 1.0 5.0 0.00 0.24 0.00 90 967.1
20260510140033 56 186 0.0 4.0 0.00 0.24 0.00 91 967.1
20260510134530 56 87 0.0 2.0 0.00 0.25 0.00 91 967.1
20260510133029 56 222 0.0 3.0 0.00 0.25 0.00 92 967.2
20260510131529 56 179 0.0 0.0 0.00 0.25 0.00 92 967.1
20260510130026 55 158 0.0 0.0 0.00 0.25 0.00 92 967.1
20260510124531 54 132 0.0 0.0 0.00 0.27 0.00 92 967.0
20260510123021 54 163 0.0 1.0 0.00 0.27 0.00 92 966.9
20260510121520 53 243 0.0 0.0 0.00 0.27 0.00 91 967.1
20260510120017 0 0.0 0.0 0.00 0.27 0.00 967.0
20260510114513 0 0.0 0.0 0.00 0.27 0.00 967.2
20260510113010 0 0.0 0.0 0.00 0.27 0.00 967.1
20260510111506 0 0.0 0.0 0.00 0.27 0.00 966.9
20260510110105 0 0.0 0.0 0.00 0.27 0.00 966.9
20260510104556 0 0.0 0.0 0.00 0.27 0.00 966.6
20260510103051 0 0.0 0.0 0.00 0.27 0.00 965.9
20260510101547 0 0.0 0.0 0.00 0.27 0.00 966.2
20260510094551 0 0.0 0.0 0.00 0.27 0.00 966.3
20260510093037 0 0.0 0.0 0.00 0.27 0.00 966.2
20260510091530 0 0.0 0.0 0.00 0.27 0.00 966.2
20260510090028 0 0.0 0.0 0.00 0.27 0.00 966.3
20260510084523 0 0.0 0.0 0.00 0.27 0.00 966.1
20260510083021 0 0.0 0.0 0.00 0.27 0.00 966.2
20260510081512 0 0.0 0.0 0.00 0.27 0.00 966.0
20260510080024 0 0.0 0.0 0.00 0.27 0.00 965.8
20260510074503 0 0.0 0.0 0.00 0.27 0.00 965.7
20260510073105 0 0.0 0.0 0.00 0.27 0.00 965.9
20260510071555 0 0.0 0.0 0.00 0.27 0.00 966.0
20260510070054 0 0.0 0.0 0.00 0.27 0.00 965.9
20260510064551 0 0.0 0.0 0.00 0.27 0.00 965.9
20260510063047 0 0.0 0.0 0.00 0.27 0.00 965.6
20260510061537 0 0.0 0.0 0.00 0.27 0.00 965.5
20260510060033 0 0.0 0.0 0.00 0.27 0.00 965.6
20260510054528 0 0.0 0.0 0.00 0.27 0.00 966.1
20260510053026 0 0.0 0.0 0.00 0.27 0.00 966.0
20260510051520 0 0.0 0.0 0.00 0.27 0.00 965.9
20260510050016 0 0.0 0.0 0.00 0.27 0.00 965.9
20260510044521 0 0.0 0.0 0.00 0.27 0.00 966.3
20260510043007 0 0.0 0.0 0.00 0.27 0.00 966.1
20260510041502 0 0.0 0.0 0.00 0.27 0.00 966.1
20260510034600 0 0.0 0.0 0.00 0.27 0.27 966.1
20260510033133 0 0.0 0.0 0.00 0.27 0.27 965.9
20260510031620 0 0.0 0.0 0.00 0.27 0.27 965.8
20260510024555 0 0.0 0.0 0.00 0.27 0.27 966.1
20260510023055 0 0.0 0.0 0.00 0.27 0.27 966.2
20260510021555 0 0.0 0.0 0.00 0.27 0.27 966.2
20260510020054 0 0.0 0.0 0.00 0.27 0.27 966.2
20260510014555 0 0.0 0.0 0.00 0.27 0.27 966.3
20260510013053 0 0.0 0.0 0.00 0.27 0.27 966.1
20260510011555 0 0.0 0.0 0.00 0.27 0.27 966.0
20260510010055 0 0.0 0.0 0.00 0.27 0.27 966.1
20260510004552 0 0.0 0.0 0.00 0.27 0.27 965.9
20260510003052 0 0.0 0.0 0.00 0.27 0.27 965.9
20260510001551 0 0.0 0.0 0.00 0.27 0.27 965.9
20260510000104 0 0.0 0.0 0.00 0.27 0.27 965.9
20260509234558 0 0.0 0.0 0.00 0.27 0.27 965.9
20260509233050 0 0.0 0.0 0.00 0.27 0.27 965.8
20260509231550 0 0.0 0.0 0.00 0.27 0.27 966.1